QPF
0.00 0.00 0.00 0.00 0.00 0.00 0.00 0.00 0.00 0.01 0.01 0.01 0.00 0.00 0.00 0.00 0.00 0.00 0.00 0.01 0.00 0.00 0.00 0.00 0.01 0.01 0.00 0.01 0.01 0.02 0.03 0.03 0.03 0.02 0.02 0.02 0.03 0.02 0.02 0.04 0.04 0.04 0.03 0.02 0.01 0.01 0.01 0.01 0.01
0.00 0.00 0.00 0.01 0.00 0.00 0.00 0.00 0.00 0.00 0.00 0.00 0.00 0.00 0.00 0.00 0.00 0.00 0.01 0.01 0.00 0.00 0.00 0.00 0.01 0.01 0.01 0.00 0.01 0.01 0.02 0.03 0.04 0.03 0.02 0.03 0.03 0.03 0.03 0.04 0.04 0.04 0.02 0.01 0.01 0.01 0.01 0.01 0.01
0.00 0.00 0.01 0.01 0.00 0.00 0.00 0.00 0.00 0.00 0.00 0.00 0.00 0.00 0.00 0.00 0.00 0.01 0.01 0.01 0.00 0.00 0.00 0.00 0.01 0.01 0.01 0.01 0.01 0.01 0.01 0.01 0.02 0.03 0.03 0.04 0.03 0.02 0.02 0.02 0.03 0.04 0.03 0.01 0.01 0.01 0.01 0.01 0.01
0.00 0.00 0.01 0.00 0.00 0.00 0.00 0.00 0.00 0.00 0.00 0.00 0.00 0.00 0.01 0.00 0.00 0.01 0.01 0.00 0.00 0.00 0.01 0.01 0.01 0.01 0.01 0.01 0.01 0.01 0.01 0.01 0.01 0.02 0.03 0.04 0.03 0.02 0.02 0.01 0.02 0.03 0.03 0.01 0.01 0.01 0.01 0.01 0.01
0.00 0.00 0.01 0.00 0.00 0.00 0.00 0.00 0.00 0.00 0.01 0.01 0.01 0.00 0.01 0.01 0.01 0.01 0.01 0.00 0.00 0.00 0.00 0.01 0.01 0.02 0.01 0.01 0.01 0.01 0.01 0.01 0.01 0.01 0.01 0.02 0.02 0.02 0.01 0.01 0.01 0.02 0.02 0.01 0.01 0.01 0.01 0.01 0.01
0.00 0.00 0.00 0.00 0.00 0.00 0.00 0.00 0.00 0.00 0.01 0.01 0.01 0.01 0.01 0.02 0.02 0.01 0.01 0.01 0.00 0.00 0.00 0.01 0.01 0.01 0.01 0.01 0.01 0.01 0.01 0.01 0.01 0.01 0.01 0.01 0.02 0.02 0.02 0.02 0.01 0.02 0.01 0.01 0.01 0.01 0.01 0.01 0.01
0.00 0.00 0.00 0.00 0.00 0.00 0.00 0.00 0.00 0.01 0.01 0.01 0.00 0.01 0.02 0.01 0.02 0.01 0.02 0.02 0.01 0.01 0.01 0.01 0.01 0.01 0.01 0.01 0.01 0.01 0.01 0.01 0.01 0.01 0.01 0.01 0.01 0.01 0.02 0.02 0.03 0.02 0.01 0.01 0.01 0.01 0.01 0.01 0.01
0.00 0.00 0.00 0.00 0.00 0.00 0.00 0.00 0.00 0.01 0.01 0.01 0.01 0.01 0.02 0.01 0.01 0.01 0.01 0.02 0.01 0.01 0.01 0.01 0.01 0.01 0.01 0.01 0.01 0.02 0.01 0.01 0.01 0.00 0.00 0.00 0.00 0.01 0.01 0.01 0.03 0.02 0.01 0.01 0.01 0.01 0.01 0.01 0.01
0.00 0.01 0.00 0.00 0.00 0.00 0.00 0.00 0.00 0.00 0.00 0.01 0.01 0.01 0.01 0.01 0.01 0.01 0.01 0.01 0.01 0.01 0.01 0.01 0.01 0.01 0.01 0.01 0.01 0.01 0.02 0.01 0.00 0.00 0.00 0.00 0.00 0.00 0.01 0.01 0.02 0.02 0.01 0.01 0.01 0.02 0.01 0.01 0.01
0.01 0.01 0.00 0.00 0.00 0.00 0.00 0.00 0.00 0.00 0.00 0.00 0.01 0.01 0.02 0.03 0.03 0.03 0.02 0.02 0.01 0.01 0.01 0.01 0.01 0.01 0.01 0.01 0.01 0.01 0.01 0.01 0.01 0.00 0.00 0.00 0.00 0.00 0.01 0.01 0.01 0.03 0.02 0.02 0.01 0.02 0.02 0.01 0.01
0.01 0.00 0.00 0.00 0.00 0.00 0.00 0.00 0.00 0.00 0.00 0.00 0.01 0.01 0.02 0.04 0.04 0.03 0.02 0.02 0.01 0.00 0.00 0.01 0.01 0.02 0.02 0.01 0.01 0.01 0.01 0.02 0.02 0.01 0.02 0.01 0.01 0.01 0.01 0.01 0.01 0.02 0.01 0.01 0.01 0.02 0.03 0.01 0.01
0.01 0.00 0.00 0.00 0.00 0.00 0.00 0.00 0.00 0.00 0.00 0.00 0.01 0.01 0.02 0.02 0.04 0.03 0.02 0.02 0.01 0.01 0.00 0.01 0.01 0.01 0.02 0.02 0.02 0.01 0.01 0.02 0.02 0.02 0.02 0.01 0.01 0.00 0.00 0.00 0.01 0.01 0.00 0.00 0.01 0.02 0.03 0.03 0.02
0.00 0.00 0.00 0.00 0.00 0.00 0.00 0.00 0.00 0.00 0.00 0.01 0.01 0.02 0.03 0.03 0.04 0.04 0.04 0.01 0.01 0.01 0.01 0.01 0.01 0.01 0.02 0.03 0.03 0.02 0.01 0.01 0.02 0.02 0.02 0.01 0.00 0.00 0.00 0.00 0.01 0.01 0.01 0.00 0.00 0.01 0.02 0.03 0.02
0.00 0.00 0.00 0.00 0.00 0.00 0.00 0.00 0.00 0.00 0.00 0.01 0.01 0.01 0.03 0.05 0.04 0.04 0.05 0.02 0.01 0.01 0.01 0.02 0.03 0.03 0.03 0.03 0.04 0.03 0.02 0.01 0.02 0.02 0.02 0.01 0.01 0.00 0.00 0.00 0.01 0.01 0.01 0.01 0.01 0.01 0.02 0.02 0.03
0.00 0.00 0.00 0.00 0.00 0.00 0.00 0.00 0.00 0.01 0.01 0.01 0.01 0.02 0.03 0.05 0.06 0.04 0.05 0.04 0.02 0.02 0.02 0.02 0.02 0.03 0.03 0.04 0.05 0.05 0.03 0.02 0.02 0.02 0.02 0.02 0.01 0.00 0.00 0.01 0.01 0.01 0.01 0.01 0.01 0.01 0.02 0.03 0.03
0.00 0.00 0.00 0.00 0.00 0.00 0.00 0.00 0.00 0.01 0.01 0.01 0.01 0.02 0.04 0.05 0.06 0.06 0.06 0.06 0.04 0.03 0.03 0.02 0.02 0.02 0.03 0.03 0.04 0.05 0.04 0.03 0.01 0.01 0.02 0.02 0.01 0.00 0.01 0.01 0.01 0.01 0.01 0.01 0.01 0.01 0.01 0.03 0.03
0.00 0.00 0.00 0.00 0.00 0.00 0.01 0.01 0.00 0.00 0.01 0.01 0.01 0.02 0.04 0.05 0.05 0.05 0.05 0.05 0.04 0.03 0.02 0.02 0.02 0.02 0.02 0.02 0.03 0.05 0.05 0.04 0.03 0.02 0.02 0.02 0.01 0.00 0.00 0.01 0.01 0.01 0.00 0.00 0.01 0.02 0.02 0.02 0.03
0.00 0.00 0.00 0.00 0.00 0.00 0.00 0.01 0.00 0.00 0.00 0.01 0.01 0.01 0.02 0.05 0.05 0.04 0.04 0.04 0.04 0.03 0.03 0.02 0.02 0.02 0.02 0.02 0.03 0.04 0.05 0.05 0.05 0.03 0.02 0.02 0.02 0.01 0.01 0.01 0.00 0.00 0.01 0.00 0.00 0.02 0.03 0.04 0.05
0.00 0.00 0.00 0.00 0.00 0.00 0.01 0.01 0.00 0.00 0.00 0.01 0.01 0.01 0.01 0.03 0.04 0.03 0.03 0.05 0.04 0.03 0.03 0.04 0.03 0.03 0.03 0.04 0.03 0.03 0.04 0.05 0.06 0.05 0.03 0.03 0.03 0.02 0.01 0.01 0.00 0.00 0.01 0.01 0.00 0.01 0.02 0.04 0.07
0.00 0.00 0.00 0.00 0.00 0.00 0.01 0.01 0.00 0.00 0.00 0.00 0.00 0.00 0.01 0.03 0.04 0.03 0.03 0.04 0.04 0.03 0.03 0.05 0.05 0.04 0.04 0.05 0.05 0.04 0.04 0.05 0.06 0.06 0.05 0.04 0.04 0.03 0.02 0.02 0.01 0.00 0.01 0.01 0.01 0.01 0.01 0.02 0.05
0.00 0.00 0.00 0.00 0.00 0.01 0.01 0.01 0.00 0.00 0.00 0.00 0.00 0.00 0.01 0.03 0.04 0.04 0.03 0.03 0.04 0.03 0.02 0.03 0.05 0.06 0.06 0.06 0.07 0.06 0.05 0.06 0.07 0.07 0.06 0.06 0.05 0.05 0.04 0.03 0.02 0.01 0.01 0.01 0.01 0.01 0.01 0.02 0.04
0.00 0.00 0.01 0.00 0.01 0.01 0.01 0.01 0.00 0.00 0.00 0.00 0.00 0.00 0.01 0.01 0.02 0.03 0.03 0.03 0.04 0.04 0.03 0.02 0.03 0.05 0.06 0.06 0.07 0.07 0.06 0.05 0.06 0.06 0.06 0.06 0.05 0.06 0.07 0.06 0.04 0.02 0.02 0.02 0.02 0.03 0.03 0.02 0.03
0.00 0.00 0.01 0.01 0.01 0.01 0.01 0.01 0.00 0.00 0.00 0.00 0.00 0.00 0.00 0.01 0.01 0.01 0.02 0.03 0.03 0.03 0.03 0.02 0.02 0.03 0.04 0.05 0.06 0.07 0.06 0.05 0.05 0.07 0.07 0.07 0.08 0.08 0.09 0.09 0.08 0.05 0.03 0.02 0.02 0.02 0.03 0.02 0.03
0.01 0.01 0.01 0.01 0.01 0.01 0.01 0.01 0.01 0.00 0.00 0.00 0.00 0.00 0.00 0.01 0.01 0.01 0.01 0.02 0.02 0.03 0.03 0.03 0.03 0.03 0.03 0.03 0.04 0.05 0.06 0.05 0.05 0.05 0.06 0.07 0.08 0.09 0.09 0.11 0.12 0.10 0.06 0.03 0.02 0.02 0.03 0.03 0.04
0.01 0.02 0.02 0.02 0.02 0.01 0.01 0.01 0.01 0.01 0.00 0.00 0.00 0.00 0.00 0.01 0.01 0.01 0.01 0.01 0.01 0.02 0.03 0.03 0.03 0.02 0.02 0.02 0.03 0.03 0.04 0.04 0.03 0.04 0.05 0.08 0.10 0.11 0.10 0.09 0.11 0.12 0.11 0.07 0.04 0.02 0.02 0.03 0.04
0.01 0.01 0.02 0.01 0.01 0.01 0.01 0.01 0.01 0.00 0.00 0.00 0.00 0.00 0.00 0.00 0.00 0.01 0.01 0.01 0.01 0.02 0.03 0.03 0.02 0.02 0.02 0.02 0.02 0.02 0.02 0.02 0.02 0.02 0.03 0.05 0.08 0.11 0.12 0.13 0.12 0.13 0.14 0.12 0.08 0.05 0.03 0.02 0.04
0.01 0.01 0.01 0.02 0.01 0.01 0.01 0.01 0.00 0.00 0.00 0.00 0.00 0.00 0.00 0.00 0.00 0.00 0.01 0.01 0.01 0.02 0.02 0.03 0.03 0.02 0.02 0.02 0.02 0.02 0.02 0.01 0.01 0.02 0.02 0.03 0.03 0.06 0.10 0.11 0.10 0.10 0.11 0.12 0.11 0.08 0.05 0.03 0.04
0.01 0.01 0.02 0.03 0.02 0.01 0.01 0.01 0.01 0.00 0.00 0.00 0.00 0.00 0.00 0.00 0.00 0.00 0.00 0.01 0.02 0.02 0.03 0.02 0.02 0.02 0.01 0.01 0.01 0.01 0.01 0.01 0.02 0.02 0.02 0.02 0.02 0.03 0.05 0.09 0.09 0.08 0.09 0.09 0.10 0.09 0.08 0.05 0.04
0.02 0.03 0.03 0.03 0.02 0.02 0.02 0.01 0.01 0.01 0.01 0.01 0.00 0.00 0.00 0.00 0.00 0.00 0.00 0.01 0.03 0.02 0.02 0.02 0.01 0.01 0.01 0.01 0.00 0.00 0.01 0.01 0.02 0.02 0.02 0.02 0.02 0.02 0.02 0.04 0.07 0.08 0.08 0.09 0.08 0.07 0.06 0.06 0.05
0.01 0.02 0.03 0.05 0.04 0.02 0.02 0.02 0.02 0.01 0.01 0.01 0.01 0.01 0.01 0.01 0.01 0.01 0.01 0.01 0.02 0.02 0.02 0.01 0.01 0.01 0.01 0.00 0.00 0.00 0.00 0.01 0.01 0.02 0.02 0.02 0.02 0.02 0.02 0.02 0.03 0.05 0.06 0.07 0.08 0.08 0.06 0.05 0.05
MSLP
1012.56 1013.03 1013.71 1014.44 1015.06 1015.43 1015.45 1015.12 1014.49 1013.70 1012.92 1012.30 1011.95 1011.88 1012.06 1012.37 1012.69 1012.89 1012.91 1012.75 1012.48 1012.20 1012.02 1012.03 1012.27 1012.70 1013.24 1013.80 1014.27 1014.60 1014.76 1014.79 1014.76 1014.75 1014.81 1015.00 1015.28 1015.63 1015.99 1016.29 1016.50 1016.61 1016.64 1016.62 1016.61 1016.63 1016.70 1016.82 1016.95
1012.89 1013.44 1014.15 1014.85 1015.39 1015.64 1015.51 1015.01 1014.24 1013.33 1012.46 1011.80 1011.43 1011.37 1011.56 1011.89 1012.24 1012.47 1012.53 1012.42 1012.21 1012.00 1011.89 1011.97 1012.26 1012.73 1013.29 1013.86 1014.34 1014.67 1014.85 1014.89 1014.88 1014.88 1014.96 1015.14 1015.43 1015.77 1016.11 1016.41 1016.62 1016.75 1016.81 1016.82 1016.84 1016.89 1016.97 1017.09 1017.21
1013.34 1013.94 1014.64 1015.28 1015.70 1015.81 1015.52 1014.89 1014.00 1013.01 1012.12 1011.44 1011.08 1011.03 1011.24 1011.58 1011.93 1012.18 1012.27 1012.21 1012.06 1011.92 1011.89 1012.02 1012.35 1012.84 1013.41 1013.97 1014.44 1014.76 1014.93 1014.97 1014.97 1014.97 1015.05 1015.23 1015.49 1015.81 1016.13 1016.41 1016.62 1016.76 1016.85 1016.91 1016.97 1017.05 1017.17 1017.30 1017.43
1013.89 1014.51 1015.17 1015.71 1016.01 1015.97 1015.56 1014.81 1013.86 1012.85 1011.95 1011.30 1010.97 1010.94 1011.16 1011.50 1011.85 1012.10 1012.21 1012.18 1012.09 1012.01 1012.04 1012.22 1012.58 1013.08 1013.63 1014.15 1014.58 1014.87 1015.01 1015.05 1015.04 1015.04 1015.11 1015.27 1015.50 1015.78 1016.07 1016.32 1016.53 1016.68 1016.79 1016.89 1017.01 1017.14 1017.29 1017.45 1017.59
1014.51 1015.12 1015.72 1016.16 1016.33 1016.17 1015.65 1014.84 1013.87 1012.88 1012.03 1011.43 1011.14 1011.14 1011.35 1011.68 1012.00 1012.23 1012.34 1012.34 1012.30 1012.27 1012.35 1012.58 1012.95 1013.42 1013.93 1014.40 1014.77 1015.01 1015.11 1015.13 1015.11 1015.11 1015.17 1015.31 1015.51 1015.75 1016.00 1016.22 1016.41 1016.57 1016.70 1016.84 1016.99 1017.17 1017.35 1017.53 1017.69
1015.13 1015.72 1016.25 1016.59 1016.65 1016.39 1015.81 1015.00 1014.06 1013.14 1012.37 1011.85 1011.60 1011.61 1011.81 1012.09 1012.36 1012.56 1012.65 1012.66 1012.65 1012.67 1012.79 1013.04 1013.40 1013.85 1014.30 1014.70 1014.99 1015.17 1015.24 1015.23 1015.20 1015.20 1015.26 1015.39 1015.57 1015.78 1015.99 1016.18 1016.35 1016.50 1016.64 1016.80 1016.98 1017.18 1017.38 1017.57 1017.73
1015.68 1016.24 1016.70 1016.96 1016.94 1016.63 1016.04 1015.27 1014.41 1013.60 1012.93 1012.49 1012.29 1012.30 1012.45 1012.67 1012.86 1013.00 1013.05 1013.06 1013.06 1013.12 1013.27 1013.52 1013.88 1014.27 1014.66 1014.99 1015.22 1015.34 1015.37 1015.36 1015.34 1015.35 1015.42 1015.55 1015.72 1015.91 1016.09 1016.25 1016.39 1016.53 1016.66 1016.82 1017.00 1017.20 1017.41 1017.59 1017.74
1016.12 1016.64 1017.03 1017.22 1017.16 1016.84 1016.30 1015.61 1014.86 1014.18 1013.63 1013.27 1013.10 1013.09 1013.17 1013.29 1013.40 1013.45 1013.45 1013.43 1013.44 1013.51 1013.68 1013.94 1014.27 1014.62 1014.95 1015.22 1015.39 1015.48 1015.50 1015.49 1015.50 1015.54 1015.64 1015.79 1015.96 1016.14 1016.30 1016.43 1016.55 1016.65 1016.77 1016.91 1017.08 1017.27 1017.45 1017.62 1017.74
1016.43 1016.90 1017.24 1017.38 1017.30 1017.01 1016.53 1015.96 1015.35 1014.80 1014.36 1014.06 1013.91 1013.85 1013.86 1013.87 1013.86 1013.81 1013.74 1013.69 1013.68 1013.76 1013.93 1014.18 1014.49 1014.81 1015.09 1015.31 1015.45 1015.53 1015.56 1015.59 1015.64 1015.74 1015.88 1016.06 1016.25 1016.42 1016.57 1016.68 1016.77 1016.85 1016.94 1017.06 1017.21 1017.37 1017.52 1017.65 1017.75
1016.64 1017.06 1017.34 1017.45 1017.37 1017.12 1016.73 1016.27 1015.79 1015.37 1015.02 1014.78 1014.61 1014.50 1014.41 1014.30 1014.17 1014.02 1013.88 1013.77 1013.74 1013.80 1013.96 1014.20 1014.48 1014.77 1015.02 1015.22 1015.35 1015.44 1015.51 1015.59 1015.71 1015.87 1016.07 1016.29 1016.50 1016.68 1016.82 1016.92 1016.98 1017.05 1017.12 1017.22 1017.34 1017.47 1017.60 1017.70 1017.77
1016.81 1017.16 1017.39 1017.47 1017.39 1017.18 1016.87 1016.51 1016.15 1015.82 1015.55 1015.33 1015.14 1014.96 1014.77 1014.55 1014.31 1014.06 1013.84 1013.68 1013.60 1013.63 1013.77 1013.98 1014.23 1014.49 1014.72 1014.91 1015.05 1015.18 1015.30 1015.45 1015.64 1015.87 1016.13 1016.39 1016.63 1016.82 1016.96 1017.05 1017.11 1017.17 1017.23 1017.32 1017.43 1017.55 1017.66 1017.74 1017.79
1017.03 1017.30 1017.46 1017.50 1017.42 1017.23 1016.98 1016.70 1016.41 1016.15 1015.91 1015.69 1015.47 1015.23 1014.96 1014.64 1014.30 1013.97 1013.67 1013.45 1013.32 1013.31 1013.39 1013.55 1013.76 1013.99 1014.20 1014.39 1014.56 1014.73 1014.91 1015.13 1015.40 1015.69 1016.00 1016.30 1016.57 1016.77 1016.92 1017.02 1017.09 1017.15 1017.22 1017.32 1017.43 1017.56 1017.67 1017.75 1017.78
1017.34 1017.54 1017.63 1017.62 1017.51 1017.33 1017.10 1016.85 1016.60 1016.36 1016.13 1015.89 1015.64 1015.35 1015.01 1014.63 1014.22 1013.82 1013.47 1013.18 1012.99 1012.91 1012.92 1013.01 1013.15 1013.33 1013.51 1013.70 1013.89 1014.11 1014.35 1014.64 1014.96 1015.31 1015.66 1015.99 1016.27 1016.50 1016.67 1016.78 1016.87 1016.96 1017.06 1017.18 1017.33 1017.47 1017.60 1017.69 1017.73
1017.80 1017.92 1017.94 1017.87 1017.72 1017.51 1017.26 1017.00 1016.75 1016.49 1016.25 1015.98 1015.70 1015.37 1015.01 1014.60 1014.16 1013.73 1013.33 1012.99 1012.72 1012.55 1012.46 1012.45 1012.51 1012.61 1012.75 1012.93 1013.13 1013.38 1013.66 1014.00 1014.36 1014.74 1015.12 1015.46 1015.76 1016.01 1016.19 1016.34 1016.47 1016.61 1016.75 1016.92 1017.10 1017.28 1017.44 1017.55 1017.62
1018.38 1018.44 1018.39 1018.26 1018.06 1017.80 1017.51 1017.21 1016.90 1016.61 1016.32 1016.03 1015.73 1015.40 1015.03 1014.64 1014.21 1013.78 1013.35 1012.96 1012.61 1012.33 1012.13 1011.99 1011.94 1011.95 1012.02 1012.16 1012.35 1012.61 1012.91 1013.27 1013.65 1014.04 1014.42 1014.77 1015.08 1015.34 1015.57 1015.76 1015.94 1016.12 1016.33 1016.55 1016.78 1017.00 1017.19 1017.34 1017.42
1019.04 1019.05 1018.96 1018.78 1018.52 1018.21 1017.85 1017.48 1017.11 1016.75 1016.41 1016.09 1015.78 1015.47 1015.14 1014.79 1014.41 1014.00 1013.57 1013.14 1012.71 1012.32 1011.98 1011.71 1011.52 1011.41 1011.40 1011.48 1011.64 1011.88 1012.18 1012.52 1012.89 1013.27 1013.64 1013.98 1014.29 1014.57 1014.83 1015.07 1015.31 1015.56 1015.83 1016.10 1016.38 1016.64 1016.86 1017.04 1017.15
1019.69 1019.68 1019.57 1019.37 1019.08 1018.71 1018.29 1017.84 1017.38 1016.95 1016.54 1016.19 1015.88 1015.60 1015.34 1015.06 1014.76 1014.40 1013.98 1013.52 1013.03 1012.53 1012.05 1011.63 1011.30 1011.07 1010.96 1010.96 1011.06 1011.25 1011.52 1011.82 1012.16 1012.49 1012.83 1013.15 1013.45 1013.75 1014.04 1014.33 1014.63 1014.95 1015.27 1015.60 1015.92 1016.21 1016.47 1016.67 1016.80
1020.26 1020.27 1020.18 1019.99 1019.69 1019.29 1018.81 1018.28 1017.73 1017.20 1016.72 1016.33 1016.02 1015.78 1015.59 1015.41 1015.20 1014.91 1014.53 1014.06 1013.51 1012.92 1012.32 1011.76 1011.29 1010.94 1010.72 1010.63 1010.66 1010.78 1010.97 1011.21 1011.47 1011.74 1012.02 1012.30 1012.58 1012.88 1013.20 1013.54 1013.90 1014.28 1014.66 1015.03 1015.38 1015.70 1015.98 1016.20 1016.37
1020.71 1020.77 1020.74 1020.60 1020.32 1019.91 1019.38 1018.77 1018.12 1017.49 1016.94 1016.49 1016.18 1015.98 1015.86 1015.77 1015.65 1015.45 1015.12 1014.66 1014.09 1013.42 1012.73 1012.07 1011.48 1011.02 1010.69 1010.50 1010.44 1010.47 1010.57 1010.71 1010.87 1011.04 1011.23 1011.45 1011.69 1011.98 1012.32 1012.70 1013.11 1013.53 1013.96 1014.36 1014.74 1015.08 1015.37 1015.62 1015.81
1021.02 1021.17 1021.24 1021.18 1020.96 1020.56 1020.00 1019.31 1018.56 1017.81 1017.16 1016.65 1016.31 1016.13 1016.07 1016.07 1016.04 1015.93 1015.67 1015.25 1014.67 1013.97 1013.22 1012.48 1011.81 1011.26 1010.84 1010.56 1010.40 1010.32 1010.30 1010.31 1010.34 1010.39 1010.47 1010.59 1010.78 1011.04 1011.37 1011.77 1012.21 1012.67 1013.13 1013.56 1013.96 1014.31 1014.62 1014.89 1015.12
1021.22 1021.50 1021.70 1021.75 1021.61 1021.23 1020.64 1019.87 1019.01 1018.15 1017.38 1016.78 1016.39 1016.20 1016.18 1016.25 1016.31 1016.29 1016.11 1015.74 1015.19 1014.50 1013.73 1012.95 1012.23 1011.62 1011.13 1010.77 1010.50 1010.31 1010.16 1010.02 1009.89 1009.79 1009.73 1009.74 1009.84 1010.04 1010.34 1010.74 1011.19 1011.67 1012.14 1012.59 1013.01 1013.37 1013.70 1014.00 1014.27
1021.40 1021.82 1022.16 1022.33 1022.27 1021.92 1021.29 1020.45 1019.47 1018.47 1017.57 1016.87 1016.41 1016.19 1016.19 1016.30 1016.44 1016.49 1016.39 1016.09 1015.60 1014.94 1014.19 1013.42 1012.69 1012.05 1011.51 1011.08 1010.73 1010.42 1010.13 1009.83 1009.54 1009.27 1009.05 1008.91 1008.90 1009.02 1009.27 1009.63 1010.07 1010.55 1011.03 1011.49 1011.91 1012.29 1012.64 1012.97 1013.29
1021.60 1022.16 1022.64 1022.93 1022.93 1022.60 1021.93 1021.00 1019.90 1018.76 1017.73 1016.91 1016.37 1016.12 1016.11 1016.25 1016.44 1016.56 1016.54 1016.31 1015.89 1015.29 1014.59 1013.85 1013.14 1012.50 1011.94 1011.47 1011.04 1010.62 1010.20 1009.75 1009.29 1008.85 1008.46 1008.18 1008.04 1008.05 1008.22 1008.53 1008.93 1009.39 1009.86 1010.31 1010.74 1011.13 1011.51 1011.87 1012.24
1021.87 1022.56 1023.16 1023.53 1023.58 1023.24 1022.52 1021.49 1020.27 1019.00 1017.85 1016.93 1016.31 1016.01 1015.98 1016.13 1016.36 1016.54 1016.58 1016.42 1016.07 1015.54 1014.90 1014.22 1013.55 1012.93 1012.38 1011.87 1011.39 1010.90 1010.37 1009.79 1009.18 1008.59 1008.05 1007.62 1007.35 1007.25 1007.33 1007.56 1007.91 1008.33 1008.77 1009.21 1009.63 1010.03 1010.42 1010.82 1011.23
1022.21 1023.00 1023.68 1024.09 1024.15 1023.77 1022.99 1021.87 1020.54 1019.16 1017.91 1016.90 1016.22 1015.88 1015.84 1016.00 1016.25 1016.47 1016.56 1016.46 1016.17 1015.70 1015.13 1014.50 1013.89 1013.31 1012.78 1012.27 1011.77 1011.23 1010.62 1009.95 1009.24 1008.52 1007.86 1007.31 1006.93 1006.72 1006.70 1006.85 1007.14 1007.50 1007.90 1008.32 1008.73 1009.13 1009.54 1009.95 1010.39
1022.58 1023.42 1024.13 1024.54 1024.55 1024.12 1023.26 1022.05 1020.64 1019.20 1017.88 1016.83 1016.12 1015.77 1015.72 1015.89 1016.15 1016.39 1016.51 1016.45 1016.20 1015.79 1015.27 1014.70 1014.14 1013.61 1013.11 1012.63 1012.14 1011.58 1010.95 1010.24 1009.47 1008.69 1007.95 1007.32 1006.85 1006.56 1006.45 1006.53 1006.74 1007.04 1007.40 1007.78 1008.17 1008.57 1008.97 1009.40 1009.85
1022.91 1023.76 1024.42 1024.78 1024.72 1024.20 1023.26 1021.98 1020.53 1019.05 1017.73 1016.69 1015.99 1015.66 1015.62 1015.81 1016.08 1016.32 1016.44 1016.40 1016.17 1015.80 1015.32 1014.80 1014.29 1013.81 1013.37 1012.93 1012.47 1011.94 1011.33 1010.63 1009.86 1009.07 1008.32 1007.66 1007.14 1006.79 1006.63 1006.64 1006.78 1007.03 1007.33 1007.68 1008.04 1008.43 1008.83 1009.25 1009.70
1023.14 1023.92 1024.49 1024.73 1024.55 1023.94 1022.92 1021.60 1020.14 1018.69 1017.42 1016.44 1015.81 1015.52 1015.53 1015.73 1016.01 1016.25 1016.37 1016.32 1016.10 1015.74 1015.29 1014.81 1014.34 1013.91 1013.52 1013.14 1012.74 1012.27 1011.73 1011.09 1010.38 1009.63 1008.91 1008.27 1007.76 1007.40 1007.20 1007.16 1007.25 1007.45 1007.71 1008.01 1008.35 1008.71 1009.10 1009.51 1009.95
1023.19 1023.84 1024.26 1024.34 1024.02 1023.29 1022.21 1020.88 1019.46 1018.09 1016.93 1016.06 1015.53 1015.34 1015.40 1015.64 1015.93 1016.16 1016.26 1016.21 1015.98 1015.63 1015.20 1014.74 1014.31 1013.93 1013.59 1013.27 1012.94 1012.56 1012.10 1011.55 1010.94 1010.29 1009.65 1009.08 1008.61 1008.27 1008.07 1008.01 1008.07 1008.22 1008.44 1008.71 1009.02 1009.35 1009.72 1010.11 1010.53
1023.04 1023.51 1023.73 1023.62 1023.13 1022.29 1021.16 1019.86 1018.51 1017.27 1016.26 1015.54 1015.15 1015.07 1015.21 1015.49 1015.79 1016.02 1016.11 1016.04 1015.81 1015.46 1015.05 1014.62 1014.22 1013.88 1013.59 1013.33 1013.07 1012.77 1012.41 1011.97 1011.48 1010.95 1010.42 1009.94 1009.54 1009.25 1009.07 1009.02 1009.06 1009.18 1009.37 1009.61 1009.88 1010.19 1010.54 1010.90 1011.29
Thickness
5715 5717 5717 5709 5691 5674 5678 5692 5705 5710 5713 5719 5722 5719 5713 5709 5707 5703 5713 5719 5718 5717 5716 5716 5715 5715 5715 5715 5715 5716 5716 5716 5716 5716 5717 5717 5717 5717 5717 5717 5717 5717 5718 5718 5718 5719 5719 5718 5718
5711 5712 5706 5693 5674 5664 5675 5693 5700 5709 5715 5719 5718 5713 5708 5705 5709 5709 5710 5714 5715 5714 5713 5712 5712 5711 5711 5711 5712 5712 5712 5712 5713 5713 5713 5713 5713 5713 5713 5713 5714 5714 5714 5714 5714 5715 5715 5715 5714
5707 5706 5691 5677 5668 5667 5682 5696 5700 5708 5714 5715 5708 5706 5703 5702 5705 5706 5709 5711 5710 5709 5708 5708 5708 5708 5707 5708 5708 5708 5708 5708 5709 5709 5709 5709 5710 5710 5710 5710 5710 5710 5710 5710 5710 5711 5711 5711 5711
5698 5689 5679 5668 5669 5679 5688 5696 5700 5703 5708 5709 5703 5695 5697 5702 5704 5705 5706 5706 5705 5704 5703 5703 5703 5703 5703 5703 5704 5704 5704 5704 5705 5705 5705 5706 5706 5705 5705 5705 5706 5706 5706 5706 5706 5706 5706 5706 5706
5687 5675 5665 5659 5668 5681 5689 5694 5698 5697 5699 5700 5697 5689 5688 5695 5700 5701 5700 5700 5699 5698 5698 5698 5698 5698 5698 5699 5699 5699 5699 5700 5700 5700 5701 5701 5701 5701 5701 5701 5701 5701 5701 5702 5702 5702 5702 5702 5702
5669 5661 5650 5650 5664 5677 5685 5690 5693 5691 5692 5693 5689 5683 5682 5689 5692 5693 5694 5693 5693 5693 5692 5692 5693 5693 5693 5693 5694 5694 5694 5695 5695 5695 5696 5696 5696 5696 5696 5696 5696 5696 5697 5697 5697 5697 5696 5697 5697
5659 5651 5648 5654 5659 5669 5679 5685 5683 5683 5683 5686 5686 5676 5675 5681 5685 5687 5687 5686 5686 5686 5686 5686 5686 5687 5687 5688 5688 5689 5689 5690 5690 5690 5691 5691 5691 5691 5691 5691 5691 5691 5691 5691 5691 5691 5691 5691 5691
5659 5648 5648 5649 5655 5663 5674 5678 5679 5679 5678 5683 5682 5672 5669 5675 5679 5680 5678 5678 5678 5678 5679 5679 5680 5680 5681 5682 5682 5683 5683 5684 5684 5685 5685 5685 5685 5685 5685 5685 5685 5686 5686 5686 5686 5685 5685 5685 5685
5656 5638 5637 5647 5653 5659 5668 5668 5671 5676 5674 5674 5673 5673 5675 5674 5673 5671 5669 5668 5669 5671 5672 5673 5673 5674 5675 5676 5676 5677 5677 5678 5678 5678 5679 5679 5679 5679 5679 5679 5679 5679 5679 5679 5679 5679 5678 5679 5679
5642 5629 5640 5650 5654 5656 5659 5661 5662 5663 5662 5661 5662 5664 5667 5666 5665 5663 5662 5661 5662 5663 5665 5667 5668 5669 5670 5670 5671 5671 5671 5672 5672 5672 5673 5673 5672 5672 5672 5673 5673 5673 5672 5672 5672 5672 5672 5673 5673
5638 5632 5641 5647 5650 5652 5652 5653 5655 5653 5651 5653 5654 5654 5656 5657 5657 5657 5657 5657 5658 5659 5660 5661 5662 5664 5665 5665 5665 5665 5666 5666 5666 5666 5666 5666 5666 5666 5666 5666 5666 5665 5665 5665 5665 5665 5666 5666 5666
5631 5633 5638 5640 5644 5645 5645 5646 5645 5645 5648 5652 5652 5651 5650 5649 5650 5650 5651 5651 5652 5652 5654 5656 5657 5658 5658 5659 5660 5660 5659 5659 5660 5660 5660 5660 5659 5659 5659 5659 5658 5658 5658 5657 5658 5658 5658 5659 5659
5625 5627 5631 5633 5635 5636 5638 5636 5636 5636 5641 5643 5643 5642 5642 5643 5644 5645 5646 5646 5646 5647 5648 5650 5651 5651 5651 5652 5653 5653 5653 5653 5653 5653 5653 5653 5653 5652 5651 5651 5651 5650 5650 5650 5650 5650 5651 5651 5652
5620 5621 5622 5625 5627 5628 5627 5628 5628 5632 5633 5634 5634 5634 5634 5636 5637 5637 5637 5638 5639 5640 5642 5643 5644 5644 5645 5645 5646 5646 5647 5646 5646 5647 5647 5646 5646 5645 5644 5643 5643 5643 5642 5642 5642 5643 5643 5643 5644
5614 5610 5611 5615 5617 5619 5619 5616 5620 5625 5625 5624 5625 5626 5627 5628 5630 5630 5630 5631 5632 5634 5635 5637 5638 5638 5638 5638 5638 5639 5640 5639 5639 5639 5639 5639 5638 5638 5637 5636 5635 5635 5634 5634 5634 5634 5635 5635 5636
5602 5595 5593 5604 5608 5609 5606 5603 5616 5617 5616 5615 5616 5617 5618 5620 5622 5623 5624 5624 5624 5627 5628 5629 5630 5630 5630 5631 5631 5631 5632 5632 5632 5633 5632 5632 5631 5630 5629 5628 5627 5627 5626 5625 5625 5626 5626 5626 5627
5582 5578 5582 5592 5598 5597 5595 5595 5607 5608 5608 5607 5607 5608 5608 5610 5612 5614 5616 5617 5616 5619 5620 5621 5622 5622 5623 5623 5623 5623 5624 5625 5625 5625 5625 5624 5624 5623 5622 5620 5619 5618 5617 5617 5617 5616 5617 5618 5618
5570 5571 5575 5579 5586 5585 5583 5587 5597 5599 5600 5599 5600 5600 5600 5602 5605 5606 5607 5608 5608 5609 5612 5613 5613 5613 5613 5614 5614 5614 5615 5616 5616 5617 5617 5616 5616 5615 5613 5612 5611 5610 5609 5608 5608 5608 5608 5609 5610
5570 5568 5567 5573 5579 5576 5576 5581 5589 5593 5591 5589 5590 5591 5593 5596 5597 5597 5597 5598 5598 5599 5601 5603 5603 5604 5604 5604 5604 5604 5604 5606 5607 5607 5608 5608 5607 5606 5605 5604 5602 5602 5601 5600 5600 5599 5599 5600 5601
5562 5558 5558 5564 5570 5569 5568 5573 5583 5586 5586 5586 5586 5586 5587 5587 5587 5588 5588 5588 5589 5589 5591 5593 5594 5595 5595 5596 5596 5596 5596 5596 5598 5598 5599 5599 5598 5598 5597 5596 5595 5594 5593 5592 5592 5592 5591 5590 5592
5555 5551 5552 5553 5557 5559 5558 5563 5574 5581 5581 5581 5580 5581 5581 5581 5580 5579 5579 5579 5579 5580 5582 5584 5584 5585 5586 5587 5587 5587 5586 5586 5587 5588 5589 5590 5590 5589 5588 5587 5586 5586 5585 5584 5584 5584 5584 5583 5583
5545 5549 5548 5547 5540 5536 5544 5539 5562 5568 5571 5572 5572 5570 5571 5573 5574 5573 5572 5571 5571 5572 5573 5574 5575 5576 5577 5577 5577 5577 5577 5577 5578 5579 5580 5581 5580 5580 5578 5577 5577 5577 5577 5576 5576 5576 5576 5576 5575
5540 5543 5541 5538 5531 5526 5530 5528 5547 5556 5560 5564 5564 5564 5564 5565 5566 5566 5566 5565 5565 5564 5564 5565 5565 5566 5567 5567 5567 5567 5567 5567 5568 5569 5570 5570 5570 5570 5569 5569 5568 5568 5568 5568 5567 5567 5567 5567 5567
5534 5530 5526 5516 5513 5513 5524 5519 5532 5542 5551 5555 5556 5556 5556 5556 5556 5556 5556 5556 5555 5554 5554 5554 5555 5556 5557 5557 5557 5557 5557 5557 5558 5558 5559 5560 5560 5560 5560 5560 5559 5559 5559 5559 5559 5559 5558 5558 5559
5521 5510 5499 5499 5493 5505 5518 5516 5526 5539 5542 5544 5545 5545 5546 5546 5545 5545 5545 5545 5545 5545 5545 5545 5546 5546 5547 5547 5547 5548 5548 5548 5548 5549 5549 5550 5549 5550 5551 5551 5550 5550 5550 5550 5550 5550 5550 5549 5550
5509 5505 5494 5491 5489 5497 5507 5509 5523 5531 5532 5534 5535 5535 5535 5535 5535 5535 5536 5536 5536 5536 5536 5536 5537 5537 5537 5538 5538 5538 5538 5538 5539 5540 5540 5540 5541 5541 5542 5542 5541 5541 5540 5541 5540 5540 5540 5540 5540
5501 5496 5496 5485 5479 5481 5493 5503 5516 5524 5523 5523 5523 5523 5523 5523 5524 5524 5525 5526 5527 5528 5528 5528 5528 5529 5529 5529 5529 5529 5528 5528 5529 5530 5531 5531 5531 5531 5531 5532 5532 5531 5531 5531 5530 5530 5530 5530 5530
5494 5490 5478 5477 5473 5477 5485 5491 5500 5509 5510 5512 5511 5511 5511 5512 5512 5513 5514 5516 5518 5519 5519 5519 5520 5520 5520 5520 5520 5520 5519 5519 5519 5519 5520 5520 5521 5520 5520 5520 5521 5521 5521 5521 5520 5519 5520 5520 5519
5480 5479 5474 5467 5466 5470 5474 5487 5501 5500 5501 5500 5499 5499 5500 5500 5501 5502 5504 5506 5508 5508 5508 5508 5509 5510 5510 5510 5510 5510 5510 5510 5510 5509 5509 5509 5510 5509 5509 5510 5510 5511 5510 5510 5509 5509 5509 5509 5508
5472 5469 5462 5458 5454 5451 5454 5475 5494 5490 5490 5490 5489 5490 5489 5490 5491 5492 5493 5494 5495 5497 5498 5498 5499 5500 5501 5501 5501 5501 5501 5500 5499 5499 5499 5499 5499 5499 5499 5499 5499 5499 5499 5499 5498 5498 5498 5498 5498